#timestamp,LO_Frequency,Hit,StdDev 
1584075615.4,286046996.8,P
1584075635.2,286046996.5,N
1584075655.1,286046997.8,N
1584075656.0,286046997.8,N
1584075675.8,286046995.6,Y
1584075695.7,286046998.9,P
1584075715.5,286046996.7,P
1584075735.3,286046997.6,N
1584075755.2,286046996.8,Y
1584075775.0,286046998.5,P
1584075775.9,286046998.5,P
1584075795.8,286046998.7,P
1584075815.6,286046998.5,Y
1584075835.4,286046999.5,P
1584075855.3,286046995.0,P
1584075875.1,286046997.4,N
1584075895.8,286046996.5,N
1584075915.7,286046996.6,N
1584075935.5,286046996.8,N
1584075955.4,286046996.7,N
1584075975.2,286046998.6,N
1584075995.0,286046998.1,N
1584075995.9,286046998.1,N
1584076015.8,286047000.8,N
1584076035.6,286046998.4,N
1584076055.5,286046998.7,N
1584076075.3,286046999.5,N
1584076095.1,286046996.8,N
1584076115.9,286046997.5,N
1584076135.7,286046997.1,N
1584076155.5,286046996.6,N
1584076175.4,286046996.8,N
1584076195.2,286046999.5,N
1584076215.1,286046996.6,N
1584076216.0,286046996.6,N
1584076235.8,286046997.0,N
1584076255.6,286046997.4,N
1584076275.5,286046997.7,N
1584076295.3,286046995.0,Y
1584076315.2,286046996.5,P
1584076335.9,286046999.4,N
1584076355.7,286046998.4,N
1584076375.6,286046998.9,N
1584076395.4,286046999.6,N
1584076415.2,286046999.5,N
1584076435.1,286046997.3,N
1584076436.0,286046997.3,N
1584076455.8,286047000.1,N
1584076475.7,286047001.8,N
1584076495.5,286046999.7,N
1584076515.3,286047002.4,N
1584076535.2,286046999.2,N
1584076555.0,286046999.4,N
1584076555.9,286046999.4,N
1584076575.7,286046997.4,N
1584076595.6,286046997.3,N
1584076615.4,286046999.1,N
1584076635.3,286046998.7,N
1584076655.1,286047000.0,N
1584076656.0,286047000.0,N
1584076675.8,286047000.7,N
1584076695.7,286046999.0,N
1584076715.5,286046998.6,N
1584076735.4,286047000.4,N
1584076755.2,286046998.4,N
1584076775.0,286047000.9,N
1584076775.9,286047000.9,N
1584076795.8,286046998.3,N
1584076815.6,286046999.9,N
1584076835.4,286047001.0,N
1584076855.3,286047001.2,N
1584076875.1,286047000.4,N
1584076895.9,286046998.3,N
1584076915.7,286046998.8,N
1584076935.5,286047002.3,N
1584076955.4,286047004.2,N
1584076975.2,286047004.3,N
1584076995.1,286046999.7,N
1584076996.0,286046999.7,N
1584077015.8,286046998.5,N
1584077035.6,286047000.6,N
1584077055.5,286047000.2,N
1584077075.3,286047000.2,N
1584077095.1,286046999.4,N
1584077115.9,286047000.6,N
1584077135.7,286047004.4,N
1584077155.6,286047004.2,N
1584077175.4,286047004.0,N
1584077195.2,286047002.0,N
1584077215.1,286047002.4,N
1584077216.0,286047002.4,N
1584077235.8,286047004.1,N
1584077255.7,286047003.5,N
1584077275.5,286047003.2,N
1584077295.3,286047003.4,N
1584077315.2,286047001.4,N
1584077335.0,286047001.9,N
1584077335.9,286047001.9,N
1584077355.8,286046999.7,N
1584077375.6,286047000.2,N
1584077395.4,286047001.3,N
1584077415.3,286047005.9,Y
1584077435.1,286047001.7,P
1584077455.9,286046999.7,P
1584077475.7,286047004.4,P
1584077495.5,286047004.0,N
1584077515.4,286047004.2,N
1584077535.2,286047000.4,N
1584077555.1,286047002.2,N
1584077556.0,286047002.2,N
1584077575.8,286047001.7,N
1584077595.6,286047002.1,N
1584077615.5,286047001.5,N
1584077635.3,286047001.4,N
1584077655.2,286047004.0,N
1584077675.9,286047003.7,N
1584077695.7,286047005.5,Y
1584077715.6,286047000.6,P
1584077735.4,286046999.0,N
1584077755.3,286047001.2,N
1584077775.1,286047000.6,N
1584077776.0,286047000.6,N
1584077795.8,286047002.8,N
1584077815.7,286047001.9,N
1584077835.5,286047002.4,N
1584077855.4,286046999.9,N
1584077875.2,286047002.2,N
1584077895.0,286047000.7,N
1584077895.9,286047000.7,N
1584077915.8,286046998.5,N
1584077935.6,286047000.4,N
1584077955.4,286047001.3,N
1584077975.3,286047002.1,N
1584077995.1,286046999.7,N
1584078015.9,286047001.9,N
1584078035.7,286047001.0,N
1584078055.5,286047002.4,N
1584078075.4,286047000.3,N
1584078095.2,286047002.7,N
1584078115.0,286047002.7,N
1584078116.0,286047002.7,N
1584078135.8,286047002.5,N
1584078155.6,286047000.0,N
1584078175.5,286047002.6,N
1584078195.3,286047004.1,Y
1584078215.1,286047002.2,P
1584078235.9,286047000.4,N
1584078255.7,286046998.5,N
1584078275.6,286047000.0,N
1584078295.4,286046999.7,N
1584078315.2,286046999.8,N
1584078335.1,286046998.9,N
1584078336.0,286046998.9,N
1584078355.8,286046998.9,N
1584078375.7,286047000.0,N
1584078395.5,286046999.7,N
1584078415.3,286047002.3,N
1584078435.2,286047001.6,N
1584078455.9,286047004.0,Y
1584078475.7,286047004.4,P
1584078495.6,286047003.5,N
1584078515.4,286047003.7,N
1584078535.3,286047001.3,N
1584078555.1,286047002.1,N
1584078556.0,286047002.1,N
1584078575.8,286047001.6,N
1584078595.7,286047002.5,N
1584078615.5,286047000.3,N
1584078635.3,286046999.9,N
1584078655.2,286047000.6,N
1584078675.0,286047002.3,N
1584078675.9,286047002.3,N
1584078695.8,286046999.8,N
1584078715.6,286047001.8,N
1584078735.4,286047003.7,N
1584078755.3,286047004.3,Y
1584078775.1,286047000.2,P
1584078795.9,286047002.7,P
1584078815.7,286047002.4,N
1584078835.5,286046999.9,N
1584078855.4,286046999.9,N
1584078875.2,286047002.2,N
1584078895.0,286047000.3,N
1584078895.9,286047000.3,N
1584078915.8,286046998.7,N
1584078935.6,286046998.4,N
1584078955.5,286047001.2,N
1584078975.3,286047000.2,N
1584078995.1,286047000.3,N
1584079015.9,286047000.1,N
1584079035.7,286046998.6,N
1584079055.6,286047001.2,N
1584079075.4,286046998.2,N
1584079095.2,286046999.9,N
1584079115.1,286046997.6,N
1584079116.0,286046997.6,N
1584079135.8,286046996.6,N
1584079155.7,286046998.4,N
1584079175.5,286047000.3,N
1584079195.3,286046998.1,N
